contact:dominique.lefevre@mio.osupytheas.fr, maurice.libes@osupytheas.fr, didier.mallarino@osupytheas.fr
Project:EMSO http://www.emso-fr.org/EMSO-France
Depth: 2436.0 m
Title:EMSO Ligure Ouest : Data MII capteur CSTAR
DateTime,Latitude,Longitude,Instrument_Serial,Reference_Counts,Signal_Counts,Corrected_Signal_raw_counts,Calculated_Beam_c_inverse_meters,Internal_thermistor_counts
DateTime,Latitude,Longitude,Instrument_Serial,Reference_Counts,Signal_Counts,Corrected_Signal_raw_counts,Calculated_Beam_c_inverse_meters,Internal_thermistor_counts
2019-12-19T00:02:38,42.805,6.029,CST-1368DR,7133,9995,15279,0.087,551
2019-12-19T00:05:40,42.805,6.029,CST-1368DR,7133,9996,15280,0.087,551
2019-12-19T00:08:41,42.805,6.029,CST-1368DR,7133,9994,15277,0.088,551
2019-12-19T00:11:43,42.805,6.029,CST-1368DR,7133,9992,15275,0.088,551
2019-12-19T00:14:45,42.805,6.029,CST-1368DR,7133,9995,15280,0.087,551
2019-12-19T00:17:46,42.805,6.029,CST-1368DR,7133,9995,15280,0.087,551
2019-12-19T00:20:48,42.805,6.029,CST-1368DR,7132,9995,15281,0.087,551
2019-12-19T00:23:50,42.805,6.029,CST-1368DR,7132,9996,15283,0.086,551
2019-12-19T00:26:51,42.805,6.029,CST-1368DR,7132,9995,15282,0.086,551
2019-12-19T00:29:54,42.805,6.029,CST-1368DR,7132,9995,15282,0.086,551
2019-12-19T00:32:56,42.805,6.029,CST-1368DR,7132,9995,15282,0.086,551
2019-12-19T00:35:57,42.805,6.029,CST-1368DR,7132,9994,15280,0.087,551
2019-12-19T00:38:59,42.805,6.029,CST-1368DR,7132,9995,15282,0.086,551
2019-12-19T00:42:01,42.805,6.029,CST-1368DR,7132,9994,15280,0.087,551
2019-12-19T00:45:02,42.805,6.029,CST-1368DR,7132,9995,15282,0.086,551
2019-12-19T00:48:04,42.805,6.029,CST-1368DR,7132,9995,15281,0.087,550
2019-12-19T00:51:06,42.805,6.029,CST-1368DR,7132,9995,15282,0.086,551
2019-12-19T00:54:07,42.805,6.029,CST-1368DR,7132,9995,15281,0.087,551
2019-12-19T00:57:09,42.805,6.029,CST-1368DR,7132,9994,15280,0.087,551
2019-12-19T01:00:11,42.805,6.029,CST-1368DR,7132,9996,15282,0.086,551
2019-12-19T01:03:12,42.805,6.029,CST-1368DR,7132,9995,15281,0.087,551
2019-12-19T01:06:14,42.805,6.029,CST-1368DR,7132,9995,15282,0.086,551
2019-12-19T01:09:15,42.805,6.029,CST-1368DR,7132,9995,15282,0.086,551
2019-12-19T01:12:17,42.805,6.029,CST-1368DR,7132,9995,15282,0.086,551
2019-12-19T01:15:19,42.805,6.029,CST-1368DR,7132,9995,15282,0.086,551
2019-12-19T01:18:20,42.805,6.029,CST-1368DR,7132,9994,15280,0.087,551
2019-12-19T01:21:22,42.805,6.029,CST-1368DR,7132,9987,15269,0.090,551
2019-12-19T01:24:24,42.805,6.029,CST-1368DR,7132,9995,15282,0.086,551
2019-12-19T01:27:25,42.805,6.029,CST-1368DR,7132,9995,15281,0.087,551
2019-12-19T01:30:27,42.805,6.029,CST-1368DR,7132,9995,15282,0.086,551
2019-12-19T01:33:29,42.805,6.029,CST-1368DR,7132,9990,15274,0.089,551
2019-12-19T01:36:30,42.805,6.029,CST-1368DR,7132,9996,15283,0.086,551
2019-12-19T01:39:32,42.805,6.029,CST-1368DR,7132,9995,15281,0.087,551
2019-12-19T01:42:33,42.805,6.029,CST-1368DR,7132,9996,15282,0.086,551
2019-12-19T01:45:35,42.805,6.029,CST-1368DR,7132,9996,15282,0.086,551
2019-12-19T01:48:37,42.805,6.029,CST-1368DR,7132,9997,15284,0.086,551
2019-12-19T01:51:38,42.805,6.029,CST-1368DR,7132,9994,15279,0.087,551
2019-12-19T01:54:40,42.805,6.029,CST-1368DR,7132,9994,15280,0.087,551
2019-12-19T01:57:42,42.805,6.029,CST-1368DR,7132,9995,15282,0.086,551
2019-12-19T02:00:43,42.805,6.029,CST-1368DR,7132,9995,15281,0.087,551
2019-12-19T02:03:45,42.805,6.029,CST-1368DR,7132,9994,15279,0.087,551
2019-12-19T02:06:47,42.805,6.029,CST-1368DR,7132,9996,15282,0.086,551
2019-12-19T02:09:48,42.805,6.029,CST-1368DR,7132,9995,15282,0.086,551
2019-12-19T02:12:50,42.805,6.029,CST-1368DR,7132,9996,15282,0.086,550
2019-12-19T02:15:52,42.805,6.029,CST-1368DR,7132,9995,15282,0.086,551
2019-12-19T02:18:53,42.805,6.029,CST-1368DR,7132,9996,15284,0.086,551
2019-12-19T02:21:55,42.805,6.029,CST-1368DR,7132,9995,15281,0.087,551
2019-12-19T02:24:56,42.805,6.029,CST-1368DR,7132,9996,15283,0.086,550
2019-12-19T02:27:58,42.805,6.029,CST-1368DR,7132,9995,15281,0.087,551
2019-12-19T02:31:00,42.805,6.029,CST-1368DR,7132,9995,15282,0.086,551
2019-12-19T02:34:01,42.805,6.029,CST-1368DR,7132,9996,15283,0.086,551
2019-12-19T02:37:03,42.805,6.029,CST-1368DR,7132,9996,15282,0.086,551
2019-12-19T02:40:05,42.805,6.029,CST-1368DR,7132,9996,15284,0.086,551
2019-12-19T02:43:07,42.805,6.029,CST-1368DR,7132,9996,15282,0.086,551
2019-12-19T02:46:08,42.805,6.029,CST-1368DR,7132,9996,15283,0.086,551
2019-12-19T02:49:10,42.805,6.029,CST-1368DR,7132,9996,15283,0.086,551
2019-12-19T02:52:12,42.805,6.029,CST-1368DR,7132,9995,15282,0.086,551
2019-12-19T02:55:13,42.805,6.029,CST-1368DR,7132,9995,15281,0.087,551
2019-12-19T02:58:15,42.805,6.029,CST-1368DR,7132,9982,15261,0.092,551
2019-12-19T03:01:16,42.805,6.029,CST-1368DR,7132,9995,15282,0.086,551
2019-12-19T03:04:18,42.805,6.029,CST-1368DR,7132,9994,15280,0.087,551
2019-12-19T03:07:20,42.805,6.029,CST-1368DR,7132,9995,15282,0.086,551
2019-12-19T03:10:22,42.805,6.029,CST-1368DR,7132,9995,15281,0.087,551
2019-12-19T03:13:23,42.805,6.029,CST-1368DR,7132,9996,15282,0.086,551
2019-12-19T03:16:25,42.805,6.029,CST-1368DR,7132,9995,15281,0.087,550
2019-12-19T03:19:26,42.805,6.029,CST-1368DR,7132,9995,15281,0.087,551
2019-12-19T03:22:28,42.805,6.029,CST-1368DR,7132,9995,15282,0.086,551
2019-12-19T03:25:30,42.805,6.029,CST-1368DR,7132,9994,15280,0.087,551
2019-12-19T03:28:31,42.805,6.029,CST-1368DR,7132,9995,15282,0.086,551
2019-12-19T03:31:33,42.805,6.029,CST-1368DR,7132,9995,15281,0.087,551
2019-12-19T03:34:35,42.805,6.029,CST-1368DR,7132,9995,15281,0.087,551
2019-12-19T03:37:36,42.805,6.029,CST-1368DR,7132,9995,15282,0.086,551
2019-12-19T03:40:38,42.805,6.029,CST-1368DR,7132,9995,15282,0.086,551
2019-12-19T03:43:40,42.805,6.029,CST-1368DR,7131,9993,15281,0.087,551
2019-12-19T03:46:41,42.805,6.029,CST-1368DR,7131,9993,15281,0.087,551
2019-12-19T03:49:43,42.805,6.029,CST-1368DR,7132,9995,15281,0.087,551
2019-12-19T03:52:45,42.805,6.029,CST-1368DR,7131,9994,15282,0.086,551
2019-12-19T03:55:46,42.805,6.029,CST-1368DR,7131,9993,15281,0.087,551
2019-12-19T03:58:48,42.805,6.029,CST-1368DR,7131,9995,15284,0.086,551
2019-12-19T04:01:50,42.805,6.029,CST-1368DR,7131,9994,15282,0.086,551
2019-12-19T04:04:51,42.805,6.029,CST-1368DR,7131,9994,15282,0.086,551
2019-12-19T04:07:53,42.805,6.029,CST-1368DR,7131,9995,15283,0.086,551
2019-12-19T04:10:54,42.805,6.029,CST-1368DR,7131,9994,15281,0.087,551
2019-12-19T04:13:56,42.805,6.029,CST-1368DR,7131,9995,15284,0.086,551
2019-12-19T04:16:58,42.805,6.029,CST-1368DR,7131,9994,15281,0.087,551
2019-12-19T04:19:59,42.805,6.029,CST-1368DR,7131,9994,15282,0.086,551
2019-12-19T04:23:01,42.805,6.029,CST-1368DR,7131,9994,15282,0.086,551
2019-12-19T04:26:03,42.805,6.029,CST-1368DR,7131,9995,15284,0.086,550
2019-12-19T04:29:04,42.805,6.029,CST-1368DR,7131,9995,15283,0.086,551
2019-12-19T04:32:06,42.805,6.029,CST-1368DR,7131,9994,15282,0.086,551
2019-12-19T04:35:07,42.805,6.029,CST-1368DR,7131,9991,15277,0.088,551
2019-12-19T04:38:09,42.805,6.029,CST-1368DR,7131,9994,15281,0.087,551
2019-12-19T04:41:11,42.805,6.029,CST-1368DR,7131,9995,15283,0.086,551
2019-12-19T04:44:12,42.805,6.029,CST-1368DR,7131,9993,15281,0.087,551
2019-12-19T04:47:14,42.805,6.029,CST-1368DR,7131,9994,15282,0.086,551
2019-12-19T04:50:16,42.805,6.029,CST-1368DR,7131,9995,15283,0.086,551
2019-12-19T04:53:17,42.805,6.029,CST-1368DR,7131,9992,15278,0.088,550
2019-12-19T04:56:19,42.805,6.029,CST-1368DR,7131,9994,15282,0.086,550
2019-12-19T04:59:20,42.805,6.029,CST-1368DR,7131,9993,15280,0.087,551
2019-12-19T05:02:22,42.805,6.029,CST-1368DR,7131,9994,15281,0.087,550
2019-12-19T05:05:24,42.805,6.029,CST-1368DR,7131,9994,15282,0.086,551
2019-12-19T05:08:25,42.805,6.029,CST-1368DR,7131,9995,15283,0.086,551
2019-12-19T05:11:27,42.805,6.029,CST-1368DR,7131,9995,15283,0.086,551
2019-12-19T05:14:29,42.805,6.029,CST-1368DR,7131,9995,15283,0.086,551
2019-12-19T05:17:30,42.805,6.029,CST-1368DR,7131,9995,15284,0.086,551
2019-12-19T05:20:32,42.805,6.029,CST-1368DR,7131,9992,15278,0.088,551
2019-12-19T05:23:33,42.805,6.029,CST-1368DR,7131,9995,15284,0.086,551
2019-12-19T05:26:35,42.805,6.029,CST-1368DR,7131,9994,15282,0.086,551
2019-12-19T05:29:37,42.805,6.029,CST-1368DR,7131,9993,15281,0.087,551
2019-12-19T05:32:38,42.805,6.029,CST-1368DR,7131,9994,15282,0.086,551
2019-12-19T05:35:40,42.805,6.029,CST-1368DR,7131,9995,15283,0.086,551
2019-12-19T05:38:42,42.805,6.029,CST-1368DR,7131,9994,15282,0.086,551
2019-12-19T05:41:43,42.805,6.029,CST-1368DR,7131,9993,15281,0.087,551
2019-12-19T05:44:45,42.805,6.029,CST-1368DR,7131,9995,15283,0.086,551
2019-12-19T05:47:47,42.805,6.029,CST-1368DR,7131,9994,15282,0.086,551
2019-12-19T05:50:48,42.805,6.029,CST-1368DR,7131,9994,15282,0.086,551
2019-12-19T05:53:50,42.805,6.029,CST-1368DR,7131,9995,15283,0.086,551
2019-12-19T05:56:52,42.805,6.029,CST-1368DR,7131,9995,15284,0.086,551
2019-12-19T05:59:54,42.805,6.029,CST-1368DR,7131,9993,15281,0.087,550
2019-12-19T06:02:56,42.805,6.029,CST-1368DR,7131,9995,15283,0.086,551
2019-12-19T06:05:57,42.805,6.029,CST-1368DR,7131,9994,15281,0.087,551
2019-12-19T06:08:59,42.805,6.029,CST-1368DR,7131,9994,15282,0.086,551
2019-12-19T06:12:01,42.805,6.029,CST-1368DR,7131,9993,15281,0.087,551
2019-12-19T06:15:02,42.805,6.029,CST-1368DR,7131,9996,15284,0.086,551
2019-12-19T06:18:04,42.805,6.029,CST-1368DR,7131,9995,15283,0.086,551
2019-12-19T06:21:06,42.805,6.029,CST-1368DR,7131,9994,15281,0.087,551
2019-12-19T06:24:07,42.805,6.029,CST-1368DR,7131,9994,15282,0.086,551
2019-12-19T06:27:09,42.805,6.029,CST-1368DR,7131,9994,15282,0.086,551
2019-12-19T06:30:11,42.805,6.029,CST-1368DR,7131,9994,15282,0.086,551
2019-12-19T06:33:12,42.805,6.029,CST-1368DR,7131,9994,15282,0.086,551
2019-12-19T06:36:14,42.805,6.029,CST-1368DR,7131,9994,15282,0.086,551
2019-12-19T06:39:15,42.805,6.029,CST-1368DR,7131,9994,15282,0.086,551
2019-12-19T06:42:17,42.805,6.029,CST-1368DR,7131,9991,15278,0.088,551
2019-12-19T06:45:19,42.805,6.029,CST-1368DR,7131,9994,15282,0.086,551
2019-12-19T06:48:20,42.805,6.029,CST-1368DR,7131,9995,15283,0.086,551
2019-12-19T06:51:22,42.805,6.029,CST-1368DR,7131,9994,15282,0.086,551
2019-12-19T06:54:24,42.805,6.029,CST-1368DR,7131,9992,15279,0.087,551
2019-12-19T06:57:25,42.805,6.029,CST-1368DR,7131,9992,15279,0.087,551
2019-12-19T07:00:27,42.805,6.029,CST-1368DR,7131,9993,15281,0.087,551
2019-12-19T07:03:29,42.805,6.029,CST-1368DR,7131,9993,15281,0.087,551
2019-12-19T07:06:30,42.805,6.029,CST-1368DR,7131,9992,15279,0.087,551
2019-12-19T07:09:32,42.805,6.029,CST-1368DR,7131,9993,15281,0.087,551
2019-12-19T07:12:34,42.805,6.029,CST-1368DR,7131,9994,15281,0.087,550
2019-12-19T07:15:35,42.805,6.029,CST-1368DR,7131,9992,15279,0.087,551
2019-12-19T07:18:37,42.805,6.029,CST-1368DR,7131,9993,15281,0.087,551
2019-12-19T07:21:39,42.805,6.029,CST-1368DR,7131,9994,15281,0.087,551
2019-12-19T07:24:40,42.805,6.029,CST-1368DR,7131,9992,15279,0.087,551
2019-12-19T07:27:42,42.805,6.029,CST-1368DR,7131,9994,15282,0.086,551
2019-12-19T07:30:44,42.805,6.029,CST-1368DR,7131,9994,15281,0.087,551
2019-12-19T07:33:45,42.805,6.029,CST-1368DR,7131,9993,15281,0.087,551
2019-12-19T07:36:47,42.805,6.029,CST-1368DR,7130,9994,15284,0.086,551
2019-12-19T07:39:48,42.805,6.029,CST-1368DR,7130,9993,15283,0.086,551
2019-12-19T07:42:50,42.805,6.029,CST-1368DR,7130,9993,15282,0.086,551
2019-12-19T07:45:52,42.805,6.029,CST-1368DR,7130,9993,15282,0.086,551
2019-12-19T07:48:53,42.805,6.029,CST-1368DR,7130,9992,15281,0.087,551
2019-12-19T07:51:55,42.805,6.029,CST-1368DR,7130,9991,15279,0.087,551
2019-12-19T07:54:57,42.805,6.029,CST-1368DR,7130,9992,15281,0.087,551
2019-12-19T07:57:58,42.805,6.029,CST-1368DR,7130,9992,15281,0.087,551
2019-12-19T08:01:00,42.805,6.029,CST-1368DR,7130,9993,15282,0.086,550
2019-12-19T08:04:02,42.805,6.029,CST-1368DR,7130,9993,15282,0.086,551
2019-12-19T08:07:03,42.805,6.029,CST-1368DR,7130,9991,15280,0.087,551
2019-12-19T08:10:05,42.805,6.029,CST-1368DR,7130,9992,15281,0.087,551
2019-12-19T08:13:07,42.805,6.029,CST-1368DR,7130,9992,15281,0.087,551
2019-12-19T08:16:08,42.805,6.029,CST-1368DR,7130,9992,15281,0.087,551
2019-12-19T08:19:10,42.805,6.029,CST-1368DR,7130,9993,15283,0.086,551
2019-12-19T08:22:12,42.805,6.029,CST-1368DR,7130,9993,15283,0.086,551
2019-12-19T08:25:13,42.805,6.029,CST-1368DR,7130,9990,15278,0.088,551
2019-12-19T08:28:15,42.805,6.029,CST-1368DR,7130,9993,15282,0.086,551
2019-12-19T08:31:17,42.805,6.029,CST-1368DR,7130,9992,15280,0.087,551
2019-12-19T08:34:18,42.805,6.029,CST-1368DR,7130,9992,15281,0.087,551
2019-12-19T08:37:20,42.805,6.029,CST-1368DR,7130,9992,15281,0.087,550
2019-12-19T08:40:22,42.805,6.029,CST-1368DR,7130,9993,15282,0.086,551
2019-12-19T08:43:23,42.805,6.029,CST-1368DR,7130,9992,15281,0.087,551
2019-12-19T08:46:25,42.805,6.029,CST-1368DR,7130,9993,15282,0.086,551
2019-12-19T08:49:26,42.805,6.029,CST-1368DR,7130,9993,15283,0.086,551
2019-12-19T08:52:28,42.805,6.029,CST-1368DR,7130,9993,15283,0.086,551
2019-12-19T08:55:30,42.805,6.029,CST-1368DR,7130,9988,15275,0.088,551
2019-12-19T08:58:31,42.805,6.029,CST-1368DR,7130,9988,15275,0.088,551
2019-12-19T09:01:33,42.805,6.029,CST-1368DR,7130,9992,15280,0.087,551
2019-12-19T09:04:35,42.805,6.029,CST-1368DR,7130,9992,15281,0.087,551
2019-12-19T09:07:36,42.805,6.029,CST-1368DR,7130,9991,15280,0.087,551
2019-12-19T09:10:38,42.805,6.029,CST-1368DR,7130,9991,15279,0.087,551
2019-12-19T09:13:39,42.805,6.029,CST-1368DR,7130,9992,15281,0.087,551
2019-12-19T09:16:41,42.805,6.029,CST-1368DR,7130,9992,15280,0.087,551
2019-12-19T09:19:43,42.805,6.029,CST-1368DR,7130,9992,15280,0.087,551
2019-12-19T09:22:44,42.805,6.029,CST-1368DR,7130,9993,15282,0.086,551
2019-12-19T09:25:46,42.805,6.029,CST-1368DR,7130,9991,15279,0.087,551
2019-12-19T09:28:47,42.805,6.029,CST-1368DR,7130,9992,15281,0.087,551
2019-12-19T09:31:49,42.805,6.029,CST-1368DR,7130,9982,15265,0.091,551
2019-12-19T09:34:51,42.805,6.029,CST-1368DR,7130,9992,15280,0.087,551
2019-12-19T09:37:52,42.805,6.029,CST-1368DR,7130,9991,15279,0.087,551
2019-12-19T09:40:54,42.805,6.029,CST-1368DR,7130,9992,15281,0.087,551
2019-12-19T09:43:56,42.805,6.029,CST-1368DR,7130,9991,15279,0.087,551
2019-12-19T09:46:57,42.805,6.029,CST-1368DR,7130,9992,15281,0.087,551
2019-12-19T09:49:59,42.805,6.029,CST-1368DR,7130,9992,15281,0.087,551
2019-12-19T09:53:01,42.805,6.029,CST-1368DR,7130,9992,15281,0.087,551
2019-12-19T09:56:02,42.805,6.029,CST-1368DR,7130,9993,15282,0.086,551
2019-12-19T09:59:04,42.805,6.029,CST-1368DR,7130,9993,15283,0.086,551
2019-12-19T10:02:06,42.805,6.029,CST-1368DR,7130,9993,15283,0.086,551
2019-12-19T10:05:07,42.805,6.029,CST-1368DR,7130,9992,15281,0.087,550
2019-12-19T10:08:09,42.805,6.029,CST-1368DR,7130,9990,15278,0.088,551
2019-12-19T10:11:10,42.805,6.029,CST-1368DR,7130,9993,15283,0.086,551
2019-12-19T10:14:12,42.805,6.029,CST-1368DR,7130,9990,15278,0.088,551
2019-12-19T10:17:14,42.805,6.029,CST-1368DR,7130,9990,15278,0.088,551
2019-12-19T10:20:15,42.805,6.029,CST-1368DR,7130,9991,15280,0.087,551
2019-12-19T10:23:17,42.805,6.029,CST-1368DR,7130,9992,15281,0.087,551
2019-12-19T10:26:19,42.805,6.029,CST-1368DR,7130,9991,15279,0.087,551
2019-12-19T10:29:20,42.805,6.029,CST-1368DR,7130,9991,15280,0.087,551
2019-12-19T10:32:22,42.805,6.029,CST-1368DR,7130,9992,15280,0.087,551
2019-12-19T10:35:24,42.805,6.029,CST-1368DR,7130,9993,15282,0.086,551
2019-12-19T10:38:25,42.805,6.029,CST-1368DR,7130,9991,15279,0.087,551
2019-12-19T10:41:27,42.805,6.029,CST-1368DR,7129,9989,15278,0.088,551
2019-12-19T10:44:28,42.805,6.029,CST-1368DR,7130,9989,15276,0.088,551
2019-12-19T10:47:30,42.805,6.029,CST-1368DR,7129,9992,15282,0.086,551
2019-12-19T10:50:32,42.805,6.029,CST-1368DR,7130,9991,15279,0.087,551
2019-12-19T10:53:34,42.805,6.029,CST-1368DR,7129,9992,15283,0.086,551
2019-12-19T10:56:35,42.805,6.029,CST-1368DR,7129,9992,15283,0.086,551
2019-12-19T10:59:37,42.805,6.029,CST-1368DR,7130,9992,15281,0.087,551
2019-12-19T11:02:39,42.805,6.029,CST-1368DR,7130,9991,15279,0.087,550
2019-12-19T11:05:41,42.805,6.029,CST-1368DR,7129,9989,15278,0.088,550
2019-12-19T11:08:43,42.805,6.029,CST-1368DR,7129,9991,15281,0.087,551
2019-12-19T11:11:44,42.805,6.029,CST-1368DR,7129,9991,15282,0.086,551
2019-12-19T11:14:46,42.805,6.029,CST-1368DR,7129,9990,15280,0.087,551
2019-12-19T11:17:48,42.805,6.029,CST-1368DR,7129,9991,15281,0.087,551
2019-12-19T11:20:49,42.805,6.029,CST-1368DR,7129,9990,15280,0.087,551
2019-12-19T11:23:51,42.805,6.029,CST-1368DR,7129,9991,15282,0.086,551
2019-12-19T11:26:52,42.805,6.029,CST-1368DR,7129,9991,15281,0.087,551
2019-12-19T11:29:55,42.805,6.029,CST-1368DR,7129,9992,15282,0.086,551
2019-12-19T11:32:56,42.805,6.029,CST-1368DR,7129,9992,15283,0.086,551
2019-12-19T11:35:58,42.805,6.029,CST-1368DR,7129,9991,15282,0.086,551
2019-12-19T11:39:00,42.805,6.029,CST-1368DR,7129,9991,15281,0.087,551
2019-12-19T11:42:01,42.805,6.029,CST-1368DR,7129,9991,15281,0.087,551
2019-12-19T11:45:03,42.805,6.029,CST-1368DR,7129,9991,15281,0.087,551
2019-12-19T11:48:04,42.805,6.029,CST-1368DR,7129,9991,15281,0.087,551
2019-12-19T11:51:06,42.805,6.029,CST-1368DR,7129,9991,15281,0.087,551
2019-12-19T11:54:08,42.805,6.029,CST-1368DR,7129,9989,15278,0.088,550
2019-12-19T11:57:09,42.805,6.029,CST-1368DR,7129,9991,15281,0.087,551
2019-12-19T12:00:11,42.805,6.029,CST-1368DR,7129,9990,15280,0.087,551
2019-12-19T12:03:13,42.805,6.029,CST-1368DR,7129,9990,15280,0.087,551
2019-12-19T12:06:14,42.805,6.029,CST-1368DR,7129,9990,15279,0.087,551
2019-12-19T12:09:16,42.805,6.029,CST-1368DR,7129,9991,15281,0.087,551
2019-12-19T12:12:17,42.805,6.029,CST-1368DR,7129,9991,15282,0.086,551
2019-12-19T12:15:19,42.805,6.029,CST-1368DR,7129,9991,15281,0.087,551
2019-12-19T12:18:21,42.805,6.029,CST-1368DR,7129,9990,15280,0.087,551
2019-12-19T12:21:22,42.805,6.029,CST-1368DR,7129,9991,15281,0.087,551
2019-12-19T12:24:24,42.805,6.029,CST-1368DR,7129,9991,15282,0.086,551
2019-12-19T12:27:26,42.805,6.029,CST-1368DR,7129,9991,15282,0.086,551
2019-12-19T12:30:27,42.805,6.029,CST-1368DR,7129,9990,15280,0.087,551
2019-12-19T12:33:29,42.805,6.029,CST-1368DR,7129,9991,15281,0.087,551
2019-12-19T12:36:30,42.805,6.029,CST-1368DR,7129,9990,15280,0.087,551
2019-12-19T12:39:32,42.805,6.029,CST-1368DR,7129,9990,15280,0.087,551
2019-12-19T12:42:34,42.805,6.029,CST-1368DR,7129,9990,15280,0.087,551
2019-12-19T12:45:35,42.805,6.029,CST-1368DR,7129,9991,15281,0.087,551
2019-12-19T12:48:37,42.805,6.029,CST-1368DR,7129,9990,15280,0.087,551
2019-12-19T12:51:38,42.805,6.029,CST-1368DR,7129,9991,15282,0.086,551
2019-12-19T12:54:40,42.805,6.029,CST-1368DR,7129,9990,15280,0.087,551
2019-12-19T12:57:42,42.805,6.029,CST-1368DR,7129,9990,15280,0.087,551
2019-12-19T13:00:43,42.805,6.029,CST-1368DR,7129,9989,15278,0.088,551
2019-12-19T13:03:45,42.805,6.029,CST-1368DR,7129,9991,15281,0.087,551
2019-12-19T13:06:47,42.805,6.029,CST-1368DR,7129,9991,15281,0.087,551
2019-12-19T13:09:48,42.805,6.029,CST-1368DR,7129,9989,15278,0.088,551
2019-12-19T13:12:50,42.805,6.029,CST-1368DR,7129,9986,15273,0.089,551
2019-12-19T13:15:51,42.805,6.029,CST-1368DR,7129,9991,15281,0.087,551
2019-12-19T13:18:53,42.805,6.029,CST-1368DR,7129,9991,15281,0.087,551
2019-12-19T13:21:55,42.805,6.029,CST-1368DR,7129,9991,15281,0.087,551
2019-12-19T13:24:56,42.805,6.029,CST-1368DR,7129,9990,15280,0.087,551
2019-12-19T13:27:58,42.805,6.029,CST-1368DR,7129,9990,15280,0.087,551
2019-12-19T13:31:00,42.805,6.029,CST-1368DR,7129,9989,15278,0.088,551
2019-12-19T13:34:01,42.805,6.029,CST-1368DR,7129,9990,15280,0.087,551
2019-12-19T13:37:03,42.805,6.029,CST-1368DR,7129,9990,15280,0.087,550
2019-12-19T13:40:04,42.805,6.029,CST-1368DR,7129,9990,15280,0.087,551
2019-12-19T13:43:06,42.805,6.029,CST-1368DR,7129,9990,15279,0.087,551
2019-12-19T13:46:08,42.805,6.029,CST-1368DR,7129,9990,15280,0.087,551
2019-12-19T13:49:10,42.805,6.029,CST-1368DR,7129,9986,15273,0.089,551
2019-12-19T13:52:11,42.805,6.029,CST-1368DR,7129,9989,15278,0.088,551
2019-12-19T13:55:13,42.805,6.029,CST-1368DR,7129,9991,15281,0.087,551
2019-12-19T13:58:14,42.805,6.029,CST-1368DR,7129,9991,15281,0.087,551
2019-12-19T14:01:16,42.805,6.029,CST-1368DR,7129,9990,15280,0.087,551
2019-12-19T14:04:18,42.805,6.029,CST-1368DR,7129,9991,15281,0.087,551
2019-12-19T14:07:20,42.805,6.029,CST-1368DR,7129,9991,15281,0.087,551
2019-12-19T14:10:21,42.805,6.029,CST-1368DR,7129,9991,15281,0.087,551
2019-12-19T14:13:23,42.805,6.029,CST-1368DR,7129,9991,15281,0.087,551
2019-12-19T14:16:24,42.805,6.029,CST-1368DR,7129,9991,15281,0.087,551
2019-12-19T14:19:26,42.805,6.029,CST-1368DR,7129,9992,15282,0.086,551
2019-12-19T14:22:28,42.805,6.029,CST-1368DR,7129,9991,15281,0.087,551
2019-12-19T14:25:29,42.805,6.029,CST-1368DR,7129,9991,15281,0.087,551
2019-12-19T14:28:31,42.805,6.029,CST-1368DR,7129,9991,15281,0.087,551
2019-12-19T14:31:33,42.805,6.029,CST-1368DR,7129,9992,15283,0.086,551
2019-12-19T14:34:34,42.805,6.029,CST-1368DR,7129,9991,15281,0.087,551
2019-12-19T14:37:36,42.805,6.029,CST-1368DR,7129,9990,15280,0.087,551
2019-12-19T14:40:37,42.805,6.029,CST-1368DR,7129,9990,15280,0.087,551
2019-12-19T14:43:39,42.805,6.029,CST-1368DR,7128,9991,15283,0.086,551
2019-12-19T14:46:41,42.805,6.029,CST-1368DR,7128,9991,15283,0.086,551
2019-12-19T14:49:42,42.805,6.029,CST-1368DR,7128,9991,15283,0.086,551
2019-12-19T14:52:44,42.805,6.029,CST-1368DR,7128,9990,15281,0.087,551
2019-12-19T14:55:46,42.805,6.029,CST-1368DR,7128,9990,15282,0.086,551
2019-12-19T14:58:47,42.805,6.029,CST-1368DR,7128,9990,15281,0.087,551
2019-12-19T15:01:49,42.805,6.029,CST-1368DR,7128,9987,15278,0.088,551
2019-12-19T15:04:50,42.805,6.029,CST-1368DR,7128,9991,15283,0.086,551
2019-12-19T15:07:52,42.805,6.029,CST-1368DR,7128,9989,15280,0.087,551
2019-12-19T15:10:54,42.805,6.029,CST-1368DR,7128,9990,15282,0.086,551
2019-12-19T15:13:55,42.805,6.029,CST-1368DR,7128,9988,15279,0.087,551
2019-12-19T15:16:57,42.805,6.029,CST-1368DR,7128,9990,15282,0.086,551
2019-12-19T15:19:59,42.805,6.029,CST-1368DR,7128,9988,15279,0.087,551
2019-12-19T15:23:00,42.805,6.029,CST-1368DR,7128,9989,15280,0.087,551
2019-12-19T15:26:02,42.805,6.029,CST-1368DR,7128,9990,15282,0.086,551
2019-12-19T15:29:03,42.805,6.029,CST-1368DR,7128,9990,15281,0.087,551
2019-12-19T15:32:05,42.805,6.029,CST-1368DR,7128,9988,15279,0.087,550
2019-12-19T15:35:07,42.805,6.029,CST-1368DR,7128,9989,15280,0.087,551
2019-12-19T15:38:08,42.805,6.029,CST-1368DR,7128,9990,15281,0.087,551
2019-12-19T15:41:10,42.805,6.029,CST-1368DR,7128,9989,15280,0.087,551
2019-12-19T15:44:12,42.805,6.029,CST-1368DR,7128,9987,15277,0.088,551
2019-12-19T15:47:13,42.805,6.029,CST-1368DR,7128,9989,15280,0.087,551
2019-12-19T15:50:15,42.805,6.029,CST-1368DR,7128,9989,15280,0.087,551
2019-12-19T15:53:17,42.805,6.029,CST-1368DR,7128,9989,15280,0.087,551
2019-12-19T15:56:18,42.805,6.029,CST-1368DR,7128,9990,15281,0.087,551
2019-12-19T15:59:20,42.805,6.029,CST-1368DR,7128,9990,15281,0.087,551
2019-12-19T16:02:22,42.805,6.029,CST-1368DR,7128,9988,15278,0.088,551
2019-12-19T16:05:23,42.805,6.029,CST-1368DR,7128,9988,15279,0.087,551
2019-12-19T16:08:25,42.805,6.029,CST-1368DR,7128,9989,15280,0.087,550
2019-12-19T16:11:26,42.805,6.029,CST-1368DR,7128,9988,15279,0.087,551
2019-12-19T16:14:28,42.805,6.029,CST-1368DR,7128,9988,15278,0.088,551
2019-12-19T16:17:30,42.805,6.029,CST-1368DR,7128,9989,15280,0.087,551
2019-12-19T16:20:31,42.805,6.029,CST-1368DR,7128,9989,15280,0.087,551
2019-12-19T16:23:33,42.805,6.029,CST-1368DR,7128,9989,15280,0.087,551
2019-12-19T16:26:35,42.805,6.029,CST-1368DR,7128,9989,15280,0.087,551
2019-12-19T16:29:36,42.805,6.029,CST-1368DR,7128,9989,15280,0.087,551
2019-12-19T16:32:38,42.805,6.029,CST-1368DR,7128,9989,15280,0.087,551
2019-12-19T16:35:40,42.805,6.029,CST-1368DR,7128,9990,15281,0.087,551
2019-12-19T16:38:41,42.805,6.029,CST-1368DR,7128,9989,15280,0.087,551
2019-12-19T16:41:43,42.805,6.029,CST-1368DR,7128,9989,15280,0.087,551
2019-12-19T16:44:44,42.805,6.029,CST-1368DR,7128,9990,15282,0.086,551
2019-12-19T16:47:46,42.805,6.029,CST-1368DR,7128,9989,15280,0.087,551
2019-12-19T16:50:48,42.805,6.029,CST-1368DR,7128,9989,15280,0.087,551
2019-12-19T16:53:50,42.805,6.029,CST-1368DR,7128,9990,15282,0.086,551